INMARSAT 3-F5
1 25153U 98006B   03042.93125001  .00000150  00000-0  10000-3 0  8426
2 25153   0.4667 353.4307 0002918 342.1551 166.1795  1.00269609 18431
HOT BIRD 4
1 25237U 98013A   03044.99704955  .00000092  00000-0  10000-3 0  3268
2 25237   0.0271 352.7901 0007523 278.3132 244.4850  1.00273304 18490
NOAA 15
1 25338U 98030A   03046.99891554  .00000256  00000-0  12968-3 0    65
2 25338  98.5501  69.2189 0010266 329.5779  30.4803 14.24244060247438
RESURS O1-N4
1 25394U 98043A   03047.24671778  .00000177  00000-0  96245-4 0  4498
2 25394  98.6314 125.2185 0002321 106.9651 253.1782 14.23877386239209
TMSAT
1 25396U 98043C   03047.21630238 -.00000043  00000-0  00000+0 0  8231
2 25396  98.6267 124.3665 0003441 129.7643 230.3840 14.23510523239196
TECHSAT 1B
1 25397U 98043D   03043.93235492 +.00000084 +00000-0 +56371-4 0 01335
2 25397 098.6224 120.0366 0001678 133.8159 226.3156 14.22958555238698
ASTRA 2A
1 25462U 98050A   03041.00000000  .00000159  00000-0  00000+0 0  5315
2 25462   0.0385 308.7109 0004824 280.8620 298.3055  1.00272094 16351
EUTELSAT W2
1 25491U 98056A   03044.86217065  .00000109  00000-0  00000+0 0  5787
2 25491   0.0103 111.2185 0003737 188.6792 169.9444  1.00270269 16008
HOT BIRD 5
1 25495U 98057A   03042.93716436  .00000165  00000-0  00000+0 0  5001
2 25495   0.0310 255.9940 0003377  65.4663 190.5501  1.00272693 15956
SEDSAT 1
1 25509U 98061B   03046.71357594  .00001259  00000-0  23867-3 0  7803
2 25509  31.4297 169.2968 0358483 277.9460  78.0607 14.27432851224908
PAN SAT
1 25520U 98064B   03046.92234715  .00003417  00000-0  17369-3 0  6381
2 25520  28.4593 241.4854 0005372 319.6173  40.4028 15.13876265237185
ISS (ZARYA)
1 25544U 98067A   03047.38855324  .00028353  00000-0  36916-3 0  6954
2 25544  51.6344 266.9312 0012360 208.2663 150.2742 15.58431187242151
ORSTED
1 25635U 99008B   03046.48107150  .00001442  00000-0  37230-3 0  8321
2 25635  96.4500  33.4519 0145359 339.5821  19.9599 14.44838233209496
SUNSAT
1 25636U 99008C   03047.22086017  .00000749  00000-0  20397-3 0  6641
2 25636  96.4524  32.6766 0149241 343.5862  16.0528 14.42954554209473
UOSAT 12
1 25693U 99021A   03047.11162965  .00000698  00000-0  11972-3 0  7074
2 25693  64.5603  18.3058 0020155 315.7904  44.1587 14.76388008205896
FENGYUN 1C
1 25730U 99025A   03046.18025444  .00000025  00000-0  36695-4 0  7676
2 25730  98.6343  70.7076 0014665  15.8621 344.3007 14.11733479194155
ASTRA 1H
1 25785U 99033A   03041.00000000  .00000129  00000-0  10000-3 0  3719
2 25785   0.0122 319.8851 0002995  65.1991 133.7806  1.00273184 13418
TERRA
1 25994U 99068A   03047.11535945  .00000600  00000-0  14322-3 0  7010
2 25994  98.1991 123.3744 0000882  64.1437 295.9856 14.57130085168312
JAWSAT
1 26061U 00004A   03047.21310992  .00000672  00000-0  24097-3 0  7662
2 26061 100.2083 103.8460 0034714 286.2058  73.5306 14.37823593160199
OPAL
1 26063U 00004C   03047.18541879  .00000181  00000-0  82929-4 0  7226
2 26063 100.2134 101.3337 0036907 294.0416  65.6900 14.35480623160042
ASUSAT
1 26065U 00004E   03046.86353930  .00000206  00000-0  91389-4 0  7342
2 26065 100.2112 101.1008 0036999 295.8608  63.8759 14.35508038159991
GOES 11
1 26352U 00022A   03046.22189279 -.00000033  00000-0  10000-3 0   245
2 26352   0.1322 103.9729 0003625 194.8141 172.5786  1.00265206 10204
EUTELSAT W4
1 26369U 00028A   03042.91619900  .00000164  00000-0  00000+0 0  3523
2 26369   0.0295   8.5955 0003064 313.2309 185.6602  1.00275437  9983
FENGYUN 2B
1 26382U 00032A   03047.19290339 -.00000330  00000-0  00000+0 0  7956
2 26382   0.5775 287.3581 0001592 228.9221 163.3127  1.00277871  9683
EUTELSAT W1
1 26487U 00052A   03045.23369793  .00000072  00000-0  10000-3 0  3557
2 26487   0.0241 276.4338 0003902  58.5322 262.9198  1.00273247  8975
ASTRA 2B
1 26494U 00054A   03041.00000000  .00000159  00000-0  00000+0 0  2540
2 26494   0.0178 354.5658 0005000 302.8402 230.4186  1.00276704  8833
NOAA 16
1 26536U 00055A   03046.88898425  .00000313  00000-0  19534-3 0  2093
2 26536  98.9018 355.1925 0010276 317.5855  42.4505 14.11904332123777
SAUDISAT 1A
1 26545U 00057A   03046.50298556  .00001565  00000-0  22590-3 0  4125
2 26545  64.5588  41.3454 0052327 239.2134 120.3829 14.78976966128766
UNISAT
1 26547U 00057C   03046.96405055  .00002660  00000-0  36144-3 0  4319
2 26547  64.5577  42.1731 0059479 241.2356 118.2791 14.79743159128803
TIUNGSAT 1
1 26548U 00057D   03045.99014050  .00002015  00000-0  27179-3 0  4157
2 26548  64.5573  35.8507 0045778 238.3933 121.2704 14.81262202128834
SAUDISAT 1B
1 26549U 00057E   03047.07819402  .00001490  00000-0  22061-3 0  6932
2 26549  64.5511  43.6770 0056760 239.2734 120.2773 14.77915759128773
AMSAT OSCAR 40
1 26609U 00072B   03046.24037137 -.00000118  00000-0  10000-3 0  3115
2 26609   8.0800  64.6767 7942000 144.0329 312.8612  1.25596569 10543
GOES 12
1 26871U 01031A   03044.63803907 -.00000152  00000-0  10000-3 0  8189
2 26871   0.3394 276.4190 0003237   5.2648 355.1756  1.00363016  5786
PCSAT
1 26931U 01043C   03046.58586783  .00000229  00000-0  12288-3 0  4028
2 26931  67.0475 263.2944 0005017 265.0499  95.0029 14.29114276 71921
SAPPHIRE
1 26932U 01043D   03046.84418935  .00000073  00000-0  61191-4 0  3979
2 26932  67.0551 262.3354 0005032 240.4738 119.5863 14.29293139 71982
ENVISAT
1 27386U 02009A   03047.16980644 -.00000611  00000-0 -21040-3 0  9438
2 27386  98.5455 115.7506 0000852 105.9646 254.1627 14.32245488 50402
IDEFIX/ARIANE 42P
1 27422U 02021B   03047.22006432  .00000288  00000-0  13402-3 0  2348
2 27422  98.6947 126.4331 0013037 153.7168 206.4676 14.27969248 41128
FENGYUN 1D
1 27431U 02024B   03046.18649677  .00000002  00000-0  25994-4 0  2152
2 27431  98.7703  95.2598 0015929 132.1832 228.0694 14.09177797 38898
NOAA 17
1 27453U 02032A   03046.96455182  .00000285  00000-0  14520-3 0  3052
2 27453  98.7593 118.1909 0012066   8.3814 351.7563 14.23292052 33592
HOT BIRD 6
1 27499U 02038A   03044.99704955  .00000091  00000-0  10000-3 0   673
2 27499   0.0348 333.6449 0009014  37.5008 144.3150  1.00272840  1785
RUBIN 2
1 27605U 02058A   03046.86135370  .00001420  00000-0  24824-3 0   598
2 27605  64.5514 205.4565 0035089 114.0741 246.4039 14.71365789  8419
